sat.trackr.live / text

‹ back to catalog

STARLINK-5022

NORAD 53903 · 2022-119T

PAYLOAD ACTIVE UNKNOWN

§ Identity

Operator
Country
US
Launch date
2022-09-24
Launch site
AFETR
Launch vehicle
Mass (kg)
RCS (m²)

Purposes: comms

External: N2YO · Heavens-Above · Gunter

§ Orbital elements

Epoch: 2026-05-24T23:22:37.913952Z

Period
95.44 min
Inclination
53.2131°
Eccentricity
0.0001314
Mean motion
15.08816528 rev/d
Perigee alt
538.9 km
Apogee alt
540.7 km
Semi-major
6,918.0 km
B*
4.6883e-4
RAAN
341.4722°
Arg perigee
83.3788°
Mean anomaly
276.7353°
Rev number
20,320

§ Raw data

STARLINK-50221 53903U 22119T   26144.97404993  .00007177  00000+0  46883-3 0  99902 53903  53.2131 341.4722 0001314  83.3788 276.7353 15.08816528203200

JSON: /api/v1/satellites/53903 · /tle

For live sub-satellite position, see the globe view (requires WebGL).

§ Visibility from observer

Set your observer location to see the next 7 days of passes ≥ 10°. The values pass through the URL so the page stays shareable.

No JS? Fill the form by hand. The geolocation button needs JavaScript.